User: anonymous
Location: Bothell
(47.7630°N, 122.2040°W)
Time: 19:35:35
(UTC-07:00)
Language:

Oscar 16 - Orbit

View from above orbital plane
View from above orbital plane
View from above satellite
View from above satellite

Ground track
Ground track

The orbit data is extracted from the following two-line orbital elements,

1 20439U 90005D   14208.82637689  .00000071  00000-0  42242-4 0   768
2 20439 098.5076 145.4000 0011539 045.0565 015.7833 14.32370266280307
Epoch (UTC): 27 July 2014 19:49:58
Eccentricity: 0.0011539
inclination: 98.5076°
perigee height: 775 km
apogee height: 792 km
right ascension of ascending node: 145.4000°
argument of perigee: 45.0565°
revolutions per day: 14.32370266
mean anomaly at epoch: 15.7833°
orbit number at epoch: 28030

The dashed part of the orbit path shows where the satellite is in the earth's shadow,  

DLR